Flag for China Weather past 2 weeks in Langfang, Hebei, China

Now
77 °F

Fog.


Feels Like: 79 °F
Forecast: 73 / 93 °F
Wind: 3 mph from Southeast

Location: Beijing Airport

Current Time: Jul 30, 2014 at 11:09:32 AM

Latest Report: Jul 30, 2014 at 10:30 AM


Visibility: 2 mi

Pressure: 29.71 "Hg

Humidity: 79%

Dew point: 70 °F

Location of LangfangLocation

Historic Weather in Langfang — Graph

°F

Langfang temperature yesterday

Maximum temperature yesterday: 95 °F (at 2:00 PM)
Minimum temperature yesterday: 73 °F (at 11:30 PM)
Average temperature yesterday: 85 °F

Past Weeks' High & Low Weather Summary

 TemperatureHumidityPressure
High99 °F (Jul 19, 4:00 PM)94% (Jul 25, 1:30 AM)29.86 "Hg (Jul 25, 1:30 AM)
Low68 °F (Jul 25, 3:00 AM)30% (Jul 21, 4:30 PM)29.50 "Hg (Jul 21, 2:30 AM)
Average84 °F61%29.68 "Hg
* Reported Jul 15 9:00 AM — Jul 30 9:30 AM, Langfang, Weather by CustomWeather, © 2014

Note: Actual official high and low records may vary slightly from our data, if they occured in-between our weather recording intervals... More about our weather records

Advertising

Langfang weather history for previous 24 hours

 ConditionsComfort  
Time TempWeatherWind HumidityBarometerVisibility
9:30 AM
Jul 30
77 °FFog.3 mph83%29.71 "Hg2 mi
9:00 AM75 °FFog.3 mph89%29.71 "Hg1 mi
8:30 AM75 °FFog.1 mph89%29.71 "Hg1 mi
8:00 AM73 °FFog.1 mph94%29.71 "Hg1 mi
7:30 AM73 °FSprinkles. Fog.3 mph94%29.68 "Hg1 mi
7:00 AM73 °FSprinkles. Fog.6 mph94%29.68 "Hg1 mi
6:30 AM73 °FSprinkles. Fog.3 mph94%29.68 "Hg1 mi
6:00 AM73 °FSprinkles. Fog.6 mph94%29.65 "Hg1 mi
5:30 AM73 °FSprinkles. Fog.6 mph94%29.68 "Hg1 mi
5:00 AM73 °FFog.3 mph94%29.65 "Hg2 mi
4:30 AM73 °FFog.1 mph94%29.65 "Hg2 mi
4:00 AM73 °FFog.1 mph94%29.65 "Hg2 mi
3:30 AM73 °FSprinkles. Fog.3 mph89%29.65 "Hg2 mi
3:00 AM73 °FSprinkles. Fog.8 mph94%29.62 "Hg2 mi
2:30 AM73 °FSprinkles. Fog.3 mph94%29.65 "Hg2 mi
2:00 AM73 °FSprinkles. Fog.1 mph89%29.62 "Hg3 mi
1:30 AM75 °FThunderstorms. Fog.6 mph89%29.65 "Hg3 mi
1:00 AM75 °FThunderstorms. Fog.3 mph89%29.65 "Hg2 mi
12:30 AM73 °FThunderstorms. Fog.1 mph94%29.65 "Hg2 mi
12:00 AM73 °FThunderstorms. Fog.6 mph94%29.62 "Hg1 mi
11:30 PM
Jul 29
73 °FThunderstorms. Fog.8 mph94%29.65 "Hg1 mi
11:00 PM75 °FThunderstorms. Fog.3 mph94%29.65 "Hg1 mi
10:30 PM75 °FThunderstorms. Fog.13 mph89%29.65 "Hg2 mi
10:00 PM82 °FThunderstorms. Passing clouds.20 mph70%29.62 "Hg4 mi
9:30 PM86 °FClear.10 mph55%29.59 "Hg4 mi
9:00 PM86 °FClear.13 mph59%29.59 "Hg4 mi
8:30 PM86 °FClear.10 mph59%29.56 "Hg4 mi
8:00 PM88 °FClear.10 mph55%29.56 "Hg4 mi
7:30 PM88 °FClear.8 mph52%29.56 "Hg4 mi
7:00 PM90 °FClear.8 mph49%29.56 "Hg4 mi
6:30 PM90 °FClear.8 mph46%29.56 "Hg4 mi
6:00 PM90 °FClear.8 mph49%29.56 "Hg4 mi
5:30 PM90 °FClear.10 mph49%29.53 "Hg4 mi
5:00 PM91 °FClear.8 mph46%29.56 "Hg4 mi
4:30 PM91 °FClear.10 mph41%29.56 "Hg4 mi
4:00 PM93 °FClear.13 mph39%29.56 "Hg4 mi
3:30 PM95 °FClear.13 mph39%29.56 "Hg4 mi
3:00 PM93 °FClear.15 mph39%29.59 "Hg4 mi
2:30 PM91 °FClear.13 mph44%29.59 "Hg4 mi
2:00 PM95 °FClear.13 mph39%29.59 "Hg4 mi
1:30 PM93 °FClear.13 mph41%29.62 "Hg4 mi
1:00 PM93 °FClear.13 mph41%29.62 "Hg4 mi
12:30 PM91 °FClear.13 mph44%29.62 "Hg4 mi
12:00 PM90 °FHaze.10 mph46%29.65 "Hg3 mi
11:30 AM90 °FHaze.10 mph49%29.65 "Hg3 mi
11:00 AM90 °FHaze.13 mph52%29.65 "Hg3 mi
Weather by CustomWeather, © 2014

See weather overviewHow to use our weather pages